GFSNW_700_spd_219.txt.gz
Wind_Speed
11 10 9 10 12 9 10 11 9 3 7 9 10 14 15 14 13 8 10 14 21 23 19 21 18 19 18 25 19 22 12 8 18 26 47 42 28 35 34 41 32 22 29 22
9 9 8 8 11 11 11 12 12 10 12 15 12 12 14 16 16 13 12 15 19 22 26 24 18 22 23 21 23 15 25 12 14 24 24 31 26 35 38 39 30 28 25 15
9 8 7 8 9 10 11 13 11 11 12 11 17 18 20 19 17 17 15 17 16 19 26 24 27 26 23 21 24 24 22 14 15 15 22 20 27 25 28 22 17 21 25 42
9 8 6 7 8 10 11 13 14 12 14 15 15 13 18 20 20 17 17 21 17 19 25 25 26 22 20 15 19 15 17 21 23 25 29 23 23 26 28 29 27 20 31 33
10 8 7 7 9 11 13 14 14 17 21 17 16 17 22 24 24 20 25 22 20 20 24 24 32 25 25 20 16 18 21 25 18 25 25 20 26 27 32 36 36 34 32 31
11 10 9 8 9 12 14 13 15 20 23 20 21 21 20 23 21 26 21 18 24 27 29 26 26 30 33 32 28 25 24 20 15 15 27 22 18 31 28 28 25 19 28 45
11 10 10 10 10 12 14 12 17 20 27 24 24 25 22 22 22 27 28 27 27 28 29 26 28 33 35 34 34 30 27 30 30 24 20 13 33 37 22 28 34 23 19 26
12 11 11 11 12 12 15 13 17 21 29 27 29 28 30 30 30 30 29 28 26 29 35 35 27 26 27 31 31 28 29 36 31 23 27 26 30 28 34 38 43 32 30 34
14 13 12 13 13 15 17 16 18 21 29 31 27 29 29 33 35 38 33 31 31 32 29 29 23 13 25 16 20 17 10 12 30 25 10 7 25 25 27 29 40 45 35 24
18 17 15 14 15 16 18 18 19 24 30 32 26 29 31 30 33 39 38 36 35 33 32 28 27 27 33 23 33 27 27 23 28 33 26 28 44 40 34 27 36 42 38 32
22 20 20 19 17 17 20 15 17 23 31 33 28 22 27 28 30 37 37 37 37 28 28 28 27 28 34 37 44 36 34 24 33 33 29 24 37 43 35 39 37 34 32 37
24 23 23 24 23 21 23 21 20 26 32 40 34 32 30 30 27 33 34 36 39 37 24 17 14 23 30 31 29 28 34 34 34 31 36 37 42 38 43 36 42 42 39 33
25 25 25 25 27 27 28 29 28 32 38 41 34 27 18 22 19 23 30 34 33 37 34 39 42 39 38 32 32 32 34 26 33 33 40 45 45 47 44 44 46 29 31 31
24 24 26 27 28 29 30 31 29 31 33 41 38 27 32 30 26 23 31 33 28 33 37 41 43 41 33 36 40 41 43 40 41 48 47 38 40 39 39 39 41 45 37 41
24 25 25 25 28 30 32 32 29 29 33 42 44 36 23 26 28 31 26 29 27 30 34 44 45 45 45 49 47 60 44 47 42 50 37 35 41 36 26 32 42 46 34 29
24 23 24 25 26 30 33 32 25 18 19 29 34 34 36 11 17 14 15 18 20 29 39 39 43 42 35 35 43 43 24 15 18 28 27 36 42 33 23 34 30 20 23 27
23 23 23 25 27 30 32 29 24 24 25 27 29 24 18 31 23 21 21 20 20 22 39 44 43 40 34 36 52 44 37 39 37 31 27 32 29 36 38 23 17 17 20 19
21 23 23 23 26 30 30 21 23 23 27 24 19 30 35 27 30 26 18 20 26 26 25 30 34 29 27 33 40 34 32 26 16 22 25 28 34 36 32 17 24 26 17 17
21 23 21 22 23 25 24 22 19 18 21 24 27 31 32 18 23 25 20 21 23 20 23 27 20 23 23 31 29 27 27 20 22 27 33 35 32 19 23 6 7 9 11 9
22 20 19 17 15 15 18 16 18 21 25 33 40 39 42 33 30 30 19 14 10 9 19 13 14 27 23 23 24 26 27 30 33 34 31 27 27 23 22 7 6 9 9 6
20 18 17 17 15 13 13 11 10 10 14 23 22 14 15 15 18 16 12 9 9 7 7 7 6 9 12 13 14 16 18 23 26 27 28 28 20 19 6 12 7 6 8 2
19 20 19 18 16 11 9 9 11 12 12 16 16 11 11 14 13 11 8 10 6 8 6 6 4 10 11 14 17 22 22 22 22 23 23 18 14 13 13 11 8 3 4 2
19 16 12 8 8 13 11 13 13 10 11 15 16 14 14 13 9 8 7 6 7 9 6 4 8 10 12 17 21 16 15 13 13 15 15 13 12 11 12 11 7 5 9 6
14 8 10 9 10 12 24 27 13 8 14 18 14 15 11 12 10 8 5 6 7 5 5 5 11 8 14 19 16 13 14 13 11 5 4 10 9 9 15 14 10 11 11 15
17 10 11 18 18 19 10 6 10 14 18 16 19 19 16 13 8 5 5 4 5 6 6 5 14 18 17 11 10 9 8 10 12 12 6 3 8 15 11 13 14 20 21 24
21 20 18 20 19 18 18 22 22 18 18 18 16 12 7 9 7 6 7 5 7 11 12 15 18 18 10 8 4 2 3 5 8 13 15 12 8 8 12 22 27 27 25 23
17 28 30 29 31 32 25 23 22 20 21 23 14 9 10 4 6 8 8 12 15 14 16 18 18 12 6 4 2 9 5 7 8 10 11 11 13 15 15 16 19 19 18 17

GFSNW_700_spd_225.txt.gz
Wind_Speed
13 11 9 8 7 6 5 4 4 4 5 4 3 4 6 8 8 6 8 6 4 8 14 12 9 2 7 11 10 15 13 8 6 23 15 12 8 17 24 18 11 11 8 17
12 11 9 8 7 7 6 3 4 4 5 4 4 3 4 12 10 9 9 6 9 12 11 10 2 11 11 8 5 5 9 5 9 12 14 18 13 8 15 12 6 11 7 24
12 10 10 9 7 7 7 5 3 4 4 3 5 7 6 7 8 8 10 12 12 13 16 10 9 14 8 8 8 9 13 15 13 10 17 15 18 18 15 13 8 9 13 16
12 10 9 9 8 8 8 7 5 5 4 5 7 10 9 8 11 11 10 10 10 14 17 18 10 16 20 13 12 9 12 18 20 24 21 19 24 26 24 18 19 12 19 25
12 10 10 9 8 8 8 9 9 10 11 9 10 9 11 12 10 12 14 14 15 17 16 14 18 20 18 19 19 15 15 18 19 18 17 20 25 23 25 24 21 25 30 32
13 11 10 9 9 8 9 10 11 13 15 12 13 12 11 15 15 15 9 20 23 20 18 19 22 23 24 25 25 24 25 28 20 22 24 17 15 31 27 27 30 30 32 31
15 14 13 11 10 9 10 11 13 14 18 15 15 17 18 18 17 21 20 18 21 20 22 25 26 26 26 26 26 24 27 26 25 28 23 10 28 32 30 33 34 33 37 36
15 16 16 15 14 12 10 12 14 15 21 22 22 21 19 19 20 23 24 21 20 18 18 23 23 22 19 14 24 18 22 29 22 17 21 23 29 32 31 33 37 33 35 36
16 16 17 18 17 18 16 14 15 19 23 25 23 26 27 28 25 24 22 16 20 21 20 17 17 10 14 8 8 11 13 17 29 18 7 7 46 32 28 27 38 37 35 35
17 17 17 19 20 21 24 20 19 20 30 27 23 24 25 22 25 29 23 28 30 24 25 25 25 24 24 15 18 14 18 23 32 33 23 29 39 33 17 19 27 7 13 19
19 18 18 18 20 23 26 27 25 26 30 34 31 27 27 22 22 28 33 32 22 14 13 16 19 16 18 22 28 25 24 14 19 21 21 23 32 23 22 17 23 28 32 32
21 20 19 19 20 22 26 29 27 30 30 40 35 36 34 35 27 24 27 29 25 20 16 14 12 19 18 15 10 11 27 28 29 25 35 36 31 35 32 40 45 44 38 40
21 21 21 20 20 22 24 27 28 30 35 40 31 3 9 22 29 15 28 30 30 30 24 27 31 33 32 30 28 32 37 32 37 39 48 44 41 42 44 41 37 36 44 38
22 22 21 21 21 22 24 26 26 29 34 40 22 10 3 17 29 27 29 23 23 27 27 32 35 37 30 36 41 45 46 41 48 47 53 47 42 35 30 34 29 31 31 39
24 23 22 22 21 22 25 27 23 25 28 36 43 35 24 10 11 17 22 20 19 24 32 38 41 41 39 45 46 49 38 40 43 44 36 40 41 25 26 24 26 30 33 34
25 24 23 22 22 23 25 26 22 15 16 26 35 27 31 9 5 8 10 19 19 23 27 34 37 35 34 31 43 51 40 31 31 42 37 28 28 30 20 25 23 28 33 41
24 24 23 23 23 23 24 22 20 19 12 22 19 22 5 4 7 20 20 15 14 24 26 32 36 37 37 43 49 32 36 37 26 21 26 25 19 23 20 23 26 33 40 42
23 24 23 23 25 23 20 10 13 20 19 19 16 26 32 25 24 14 18 21 23 21 22 26 32 28 29 32 26 24 21 21 26 25 20 23 25 26 25 28 32 38 37 39
22 23 22 22 24 22 17 16 18 26 28 25 27 32 29 16 18 29 29 24 21 15 20 25 18 21 23 26 27 26 22 21 23 22 23 22 26 28 29 31 31 29 28 23
21 21 20 21 18 13 8 6 11 17 23 34 40 37 40 32 28 28 20 11 8 8 13 12 14 28 25 23 21 21 21 24 27 31 28 26 24 22 22 22 24 20 24 22
20 20 19 17 10 10 9 10 13 11 14 25 33 23 18 19 21 19 8 7 8 7 9 9 8 22 20 19 20 20 24 27 31 31 27 26 23 22 17 14 11 14 17 12
20 19 16 13 12 11 11 11 11 15 13 14 14 8 9 9 9 8 7 9 6 8 8 8 7 15 14 18 20 23 26 27 25 24 23 23 19 14 11 7 5 9 11 9
17 15 12 8 12 18 11 16 13 12 11 7 7 9 11 10 9 7 7 6 8 8 7 6 12 15 18 21 18 20 21 21 21 21 21 17 10 8 7 2 4 4 5 6
15 11 12 12 11 11 23 27 10 13 10 10 8 11 11 9 7 7 6 7 7 6 6 12 13 19 19 21 22 21 18 16 17 21 16 8 2 4 2 3 1 3 6 12
14 10 10 16 17 17 6 6 10 14 16 19 18 19 19 19 10 6 7 5 6 7 7 11 19 20 25 23 21 19 14 12 13 17 14 8 3 1 2 3 4 5 7 12
18 19 15 9 14 16 19 17 15 17 18 19 17 14 6 10 7 9 11 7 8 13 13 17 19 24 23 20 18 16 11 8 10 11 13 11 8 7 6 7 3 7 6 12
16 22 24 24 28 28 22 19 19 20 21 20 17 13 12 9 10 13 13 22 23 20 14 17 24 25 22 18 16 14 10 8 7 6 8 10 10 6 5 8 11 14 18 22

GFSNW_700_spd_228.txt.gz
Wind_Speed
15 13 10 9 9 9 7 6 6 6 5 6 4 5 2 4 7 6 5 6 4 10 13 12 6 3 10 8 6 8 7 7 7 18 15 15 9 14 16 15 21 6 3 8
13 13 11 9 9 9 8 6 6 4 4 4 4 5 3 6 7 6 5 4 9 10 10 8 5 8 5 5 6 3 8 3 7 8 9 12 6 5 8 13 6 6 1 6
12 12 11 9 9 9 8 6 4 6 6 3 4 4 3 5 7 5 7 7 7 9 12 8 6 13 6 12 10 9 11 13 10 9 16 16 18 15 18 14 6 9 15 25
12 11 11 9 8 9 9 8 6 7 6 9 8 9 7 6 9 7 7 6 7 9 12 16 5 15 17 13 5 6 9 15 14 16 18 20 22 22 20 21 26 15 25 27
13 12 12 10 8 9 10 10 10 10 10 11 11 10 9 8 7 11 13 12 8 17 18 16 20 18 18 20 19 13 15 17 18 23 24 22 24 27 27 26 25 28 31 31
14 14 13 13 10 10 10 11 11 13 14 12 13 12 7 10 12 10 9 16 23 21 18 19 21 22 24 25 25 23 25 23 13 22 20 15 17 36 32 31 31 30 32 33
15 15 15 14 14 11 11 12 14 16 18 16 14 15 15 14 15 19 15 17 20 21 23 24 24 24 24 26 25 25 32 28 18 22 17 8 33 29 28 34 35 36 39 40
16 15 16 16 16 16 14 14 16 17 21 18 17 17 20 20 17 21 24 18 18 13 19 26 22 22 21 14 22 17 20 23 18 8 11 23 42 35 31 27 35 32 33 34
16 16 17 17 18 19 19 17 18 20 26 27 18 21 21 22 22 20 17 17 19 18 23 15 9 8 17 7 8 11 14 18 22 13 7 7 15 14 13 15 30 32 27 33
17 17 17 19 19 21 23 22 21 24 29 33 27 24 23 25 25 25 23 21 23 24 22 19 14 18 21 12 13 11 14 20 29 30 18 23 33 32 18 15 32 13 10 13
18 19 18 19 20 21 24 24 24 26 32 33 34 30 29 27 27 26 24 29 27 13 14 10 13 14 14 14 21 16 19 14 18 20 18 19 24 17 24 27 22 23 23 31
19 20 19 19 21 22 24 24 24 27 31 34 33 34 36 35 32 35 36 34 28 17 13 11 13 17 24 31 37 33 24 28 20 19 33 38 41 43 43 44 47 46 42 47
21 20 20 20 21 22 24 24 24 27 34 35 22 11 23 21 11 20 24 24 23 29 24 26 28 29 26 28 29 30 32 27 35 37 46 45 46 44 43 38 41 40 45 51
22 22 21 20 21 22 25 25 24 27 30 39 15 6 19 11 15 18 29 31 30 28 26 28 31 36 26 36 42 43 39 40 43 48 48 38 35 33 34 36 32 34 34 38
23 23 21 20 21 22 26 26 25 23 26 34 39 30 23 14 26 27 18 22 19 21 28 31 35 36 39 46 47 48 35 37 40 44 36 38 41 33 31 33 29 29 30 29
24 24 23 21 20 21 26 28 23 19 16 25 36 24 24 24 21 12 13 21 22 24 29 32 34 30 30 32 44 43 39 37 36 40 41 40 35 33 32 28 28 28 31 32
25 24 23 22 20 21 23 26 20 16 18 22 19 21 2 2 4 7 12 19 20 24 29 33 34 34 32 42 47 23 29 27 24 23 27 32 30 35 33 28 26 26 28 33
24 24 23 22 20 21 21 19 18 14 18 20 12 19 21 18 19 12 9 18 21 24 28 33 34 27 24 33 33 33 26 27 27 25 24 29 32 31 30 31 32 34 35 36
23 23 22 22 21 19 15 18 19 24 25 17 22 31 28 13 11 18 23 20 17 17 22 25 22 26 31 32 30 28 28 28 26 24 28 31 34 33 29 27 27 29 31 32
21 21 21 21 16 12 10 11 11 13 24 35 40 38 37 31 27 25 16 9 8 10 14 10 14 28 27 24 19 22 25 26 28 33 33 33 32 29 24 21 22 25 26 25
21 20 20 17 10 7 7 9 14 10 13 23 29 24 21 17 22 20 9 6 5 7 8 6 8 26 21 21 17 21 25 27 30 30 31 31 32 29 20 14 15 16 19 23
19 18 16 14 11 11 10 10 11 14 12 19 22 17 10 8 9 9 7 7 6 7 7 6 7 16 17 17 19 20 23 23 24 24 27 29 26 18 13 10 8 11 15 18
17 15 12 8 11 16 12 14 14 12 12 8 6 9 10 11 12 11 8 7 8 7 6 7 10 10 19 20 25 24 24 23 21 22 25 25 15 8 8 5 8 5 12 9
14 11 11 10 10 11 22 25 10 19 10 12 9 8 7 10 11 8 6 7 5 5 7 14 9 17 20 25 26 24 22 20 17 18 21 18 11 5 4 2 5 0 8 5
13 9 9 16 15 15 8 10 16 18 18 21 22 20 19 19 13 10 8 5 7 7 7 8 15 18 23 24 25 23 21 18 15 16 17 13 9 6 7 5 3 2 3 5
17 17 13 9 11 16 19 17 17 16 15 16 19 18 10 11 10 10 9 6 7 11 14 16 21 20 25 26 24 22 20 17 12 13 15 14 9 9 9 5 4 2 7 13
16 20 20 22 26 25 18 13 17 19 22 22 16 11 10 9 8 10 11 21 18 14 15 14 17 23 29 27 24 21 18 16 11 11 12 11 12 12 8 2 4 9 14 14

GFSNW_700_spd_231.txt.gz
Wind_Speed
12 13 12 12 11 10 9 8 7 8 7 7 5 5 2 3 4 4 4 4 7 9 12 9 4 5 9 8 7 6 6 5 6 9 13 12 8 8 11 13 9 5 7 11
11 12 11 11 11 10 9 8 8 6 6 5 7 5 4 3 5 4 3 2 6 7 10 5 7 6 10 4 10 6 8 2 6 1 3 1 2 4 6 10 5 14 7 9
12 11 11 10 11 10 9 8 6 8 8 5 5 5 4 5 5 5 5 4 3 7 7 9 8 6 4 10 11 8 9 7 6 7 9 11 12 11 15 14 6 8 15 34
13 11 12 11 10 11 10 8 7 7 8 9 10 10 8 6 7 5 6 5 7 7 9 18 7 14 17 12 4 2 8 10 13 16 18 18 21 22 19 18 21 12 32 27
13 13 12 12 10 10 12 10 10 8 10 10 10 11 10 10 8 10 12 10 6 12 18 14 20 19 18 20 13 13 12 12 12 23 22 23 23 27 30 31 27 27 32 34
13 14 13 14 13 11 12 14 12 12 11 11 13 11 9 9 13 10 7 15 19 18 18 19 18 20 22 24 25 24 20 17 9 12 12 13 17 35 33 34 35 34 31 36
15 14 14 14 15 13 12 14 17 15 16 14 12 13 15 14 14 21 18 16 19 21 21 19 19 23 23 24 25 24 28 20 16 15 13 12 24 21 21 23 27 26 30 35
15 15 15 15 16 17 15 14 18 21 20 17 15 12 14 14 14 18 21 20 20 16 20 21 21 20 14 10 16 11 17 19 18 10 16 26 32 22 21 21 23 25 29 31
16 16 16 16 17 18 18 16 17 22 25 25 17 20 21 21 20 18 14 11 14 17 15 17 8 7 8 6 7 10 10 12 21 13 6 7 13 6 9 15 35 17 12 15
16 16 16 17 18 19 20 19 19 21 30 30 23 21 22 25 26 26 26 22 21 18 23 16 12 11 11 7 7 8 10 11 23 26 17 22 20 21 16 13 21 23 25 27
16 17 17 18 19 20 22 21 20 23 26 32 30 22 20 20 21 23 22 25 23 17 11 8 9 10 11 12 14 10 8 6 8 14 15 15 12 9 18 26 34 33 38 41
17 17 17 18 19 20 23 22 21 24 26 30 32 30 29 25 19 25 28 32 22 11 12 10 9 15 20 24 29 28 27 28 24 21 21 31 31 36 44 46 44 43 43 40
17 18 18 18 20 21 23 23 23 25 29 28 20 10 13 22 14 18 27 26 16 19 19 26 28 27 24 19 18 21 20 23 31 36 41 39 41 32 26 24 31 32 36 38
18 18 18 18 20 22 24 24 23 25 26 34 11 7 6 17 35 32 25 24 23 19 24 27 31 36 25 29 33 33 36 36 40 45 44 39 33 29 33 35 34 33 35 37
17 17 17 18 20 21 25 26 25 25 22 29 35 27 19 18 22 19 26 24 25 30 28 30 32 35 33 40 39 43 32 31 35 37 34 35 34 30 30 32 32 32 32 32
17 17 18 18 19 20 25 26 23 19 16 24 33 20 21 13 11 17 18 17 26 26 27 28 35 37 32 27 33 34 29 27 33 42 34 30 30 31 29 33 34 36 36 34
18 19 19 18 19 20 23 24 19 16 15 19 18 20 4 2 2 3 4 15 16 18 24 33 34 35 32 38 45 14 30 34 32 27 33 36 31 32 33 35 37 38 36 34
20 20 19 18 19 20 21 21 20 16 14 17 12 13 14 13 15 18 12 9 15 24 29 31 29 28 28 35 26 29 30 30 30 31 31 30 33 35 35 35 35 36 32 31
21 20 19 18 18 18 17 19 21 18 19 13 17 24 20 8 5 8 14 22 19 15 21 23 17 21 23 28 26 26 27 24 24 22 25 31 33 35 33 32 30 31 28 27
20 19 18 16 15 13 13 12 11 14 23 32 36 34 34 27 25 15 12 10 11 9 13 9 13 26 19 12 13 16 18 22 25 28 25 28 30 33 32 27 22 22 22 21
19 18 16 13 10 8 6 6 9 9 11 19 22 13 12 12 18 17 9 7 6 6 6 5 7 19 12 12 15 18 23 25 26 27 27 28 32 33 28 17 13 14 16 18
18 16 13 11 9 9 9 10 10 11 10 13 13 9 7 8 8 9 8 10 6 7 7 5 6 11 11 17 20 23 25 25 24 24 25 27 29 27 19 14 11 13 13 16
16 14 11 7 11 13 11 14 12 12 11 10 7 4 6 6 7 8 8 9 9 5 6 6 7 6 13 18 23 25 25 25 23 21 23 25 24 23 12 12 9 7 7 10
14 10 11 10 10 11 19 20 15 20 15 12 12 9 4 6 8 8 6 7 6 5 6 8 2 9 18 19 25 26 26 24 22 20 21 22 21 18 15 13 10 4 3 10
12 9 9 16 15 14 10 16 20 18 20 24 24 20 19 18 11 8 7 5 7 7 3 8 8 16 20 20 25 27 27 24 21 18 17 18 20 17 16 8 3 6 9 10
19 16 11 9 12 16 19 16 15 17 19 18 19 18 13 14 10 11 11 7 7 2 6 11 15 15 18 21 27 28 25 23 19 17 15 16 17 19 20 16 7 10 11 7
15 18 22 23 21 15 9 12 16 17 19 18 14 9 10 7 10 13 8 9 14 15 13 12 13 17 21 24 28 29 22 20 17 15 12 13 14 14 16 14 14 6 8 11

GFSNW_700_spd_237.txt.gz
Wind_Speed
10 9 7 5 4 4 4 4 4 5 3 2 3 4 4 7 5 6 7 8 7 9 13 10 10 12 11 11 17 15 12 7 14 10 6 4 2 3 2 3 6 25 21 26
11 10 9 7 5 4 3 4 5 4 3 4 5 5 6 7 5 5 5 6 8 8 10 8 9 14 12 12 18 15 11 6 12 5 4 2 6 8 6 10 9 8 6 13
12 12 10 9 7 6 5 5 5 5 4 4 3 5 8 7 7 7 7 8 8 8 9 7 11 12 10 17 15 13 9 8 10 13 10 11 15 12 10 7 8 17 15 24
14 13 11 10 9 8 7 5 5 5 5 6 5 6 6 7 7 7 7 6 8 9 11 13 9 14 17 15 12 9 10 11 14 18 19 19 20 20 20 20 21 19 26 32
15 14 12 11 11 10 10 8 6 7 6 8 6 8 7 6 7 10 7 10 11 10 13 16 21 18 16 17 13 12 15 12 17 23 19 18 21 22 22 24 25 25 29 32
17 15 14 12 12 12 12 11 9 8 8 6 8 8 9 6 7 9 9 10 12 15 16 18 20 22 22 22 22 20 19 20 14 20 11 15 20 18 15 18 21 24 30 30
20 17 15 14 13 13 14 12 10 9 10 9 9 9 9 10 11 14 13 14 16 16 21 21 18 19 21 22 22 20 21 20 16 18 17 13 8 7 13 16 20 20 21 21
22 19 17 16 15 14 15 13 15 16 14 10 11 13 13 13 14 15 15 16 16 17 13 14 14 14 11 8 9 5 13 16 14 10 17 20 22 10 4 12 18 14 16 18
24 21 19 17 16 15 16 15 15 19 18 12 9 12 12 13 13 15 15 15 14 10 11 13 12 12 15 6 7 8 7 11 16 15 10 7 3 6 11 13 20 3 8 12
25 23 20 18 17 16 16 15 16 18 23 17 15 13 11 11 11 13 11 14 15 9 10 13 16 20 17 15 11 8 10 10 17 19 21 16 14 13 16 12 16 19 17 20
26 24 21 19 18 17 17 16 16 18 22 24 23 15 12 13 15 15 9 14 7 9 8 9 10 10 10 13 13 13 16 17 19 12 15 17 13 8 9 16 26 29 32 33
27 25 22 20 19 17 17 16 17 19 21 24 26 22 22 21 19 18 18 15 5 5 6 7 8 11 15 15 24 19 23 22 26 27 27 25 28 29 27 29 28 31 32 33
27 25 22 20 19 18 17 18 18 18 20 20 22 6 21 19 13 16 24 24 19 18 16 21 19 18 14 19 21 23 21 20 25 25 28 29 27 28 29 29 27 30 31 33
26 24 22 20 18 17 17 17 18 17 18 23 18 8 5 12 18 24 22 23 22 20 22 22 25 21 16 20 25 28 26 24 25 28 31 29 26 24 26 29 31 32 33 33
26 24 22 20 18 17 17 18 18 16 14 18 24 24 23 14 14 15 20 20 23 22 20 25 25 20 23 27 27 31 19 21 23 29 24 26 29 28 28 31 33 36 36 35
25 23 21 19 17 16 17 17 17 16 15 14 19 19 17 20 15 8 7 17 22 24 21 21 23 22 22 22 26 21 18 19 22 26 25 26 28 29 29 31 33 35 38 38
25 23 20 18 17 16 17 17 13 13 10 13 11 12 9 6 7 6 6 8 10 12 19 25 24 18 22 29 34 18 20 22 19 20 21 26 24 27 28 31 31 33 36 38
25 23 20 18 17 18 18 17 16 16 14 14 8 10 7 8 10 11 10 14 17 22 22 24 25 20 19 22 17 16 15 17 18 18 20 25 27 29 28 30 32 35 36 37
25 22 20 19 18 17 17 15 15 15 15 9 13 8 6 10 11 8 8 10 12 17 24 21 10 14 16 13 11 15 16 16 20 23 27 26 26 27 27 27 29 32 33 28
25 23 20 19 17 15 13 13 13 16 20 26 31 18 15 9 7 8 6 8 8 11 15 7 21 21 20 19 16 14 11 16 20 23 24 26 25 24 26 28 28 29 27 25
26 24 21 16 12 11 9 7 9 10 11 17 21 20 17 16 14 12 8 6 5 6 8 10 8 10 7 7 6 9 14 19 23 24 26 25 26 26 27 28 26 25 22 21
25 20 18 16 10 9 9 10 8 11 8 10 4 5 9 17 16 10 7 7 6 8 10 7 7 9 6 6 7 11 15 19 24 26 25 24 24 25 27 30 28 24 18 17
22 21 18 9 11 11 10 15 12 10 10 12 10 9 9 11 11 8 7 8 9 8 7 8 12 11 7 7 12 13 19 21 25 28 26 24 24 24 26 28 27 20 9 8
26 18 14 14 10 12 17 14 9 17 12 10 9 9 7 9 9 8 7 9 9 7 8 13 10 10 10 13 13 15 17 21 24 28 26 24 24 21 23 26 26 6 1 8
15 13 11 18 14 13 14 21 22 18 20 15 11 11 12 12 10 7 7 6 7 8 12 12 10 14 16 15 14 17 19 22 29 31 27 25 22 19 20 22 23 4 0 2
13 13 11 13 18 22 18 15 15 14 16 16 13 10 8 10 8 8 10 11 15 15 13 15 15 17 17 14 18 22 22 22 30 32 29 25 21 18 18 18 20 11 5 5
11 13 19 14 13 13 15 16 10 15 11 12 11 9 11 7 11 16 14 20 20 18 21 21 19 18 19 21 23 24 24 29 31 35 34 26 19 17 16 15 14 14 5 5

GFSNW_700_spd_240.txt.gz
Wind_Speed
13 11 10 8 7 6 5 4 4 4 4 2 4 4 4 8 5 6 8 8 9 10 14 16 12 16 15 17 21 22 17 10 20 14 2 6 10 10 6 6 5 6 5 9
15 13 12 11 9 8 6 6 5 5 5 6 5 7 9 7 6 5 6 8 9 11 13 12 13 14 13 17 20 22 24 12 18 11 6 15 14 4 12 4 7 4 0 9
17 15 14 13 11 9 9 8 5 6 7 6 5 7 10 8 6 7 6 9 10 11 10 11 13 16 14 18 17 18 13 12 13 12 13 17 20 15 6 6 2 9 15 27
19 17 16 14 13 12 11 9 7 7 5 6 7 7 7 6 7 8 7 8 7 11 14 17 11 18 18 16 16 10 14 11 15 18 20 19 21 20 17 16 17 18 22 24
21 19 17 16 15 14 14 11 9 9 9 8 7 9 12 8 6 9 10 8 11 13 11 15 22 21 19 20 19 16 14 13 19 27 20 16 20 18 18 19 20 22 22 26
25 21 19 18 17 17 16 12 11 12 10 8 10 11 10 7 6 11 9 9 11 12 14 18 19 19 22 21 20 20 19 20 18 21 14 21 18 13 13 15 13 14 18 20
27 25 22 20 19 19 17 13 13 12 13 10 10 11 11 11 10 13 12 13 14 15 18 18 18 19 15 15 15 16 20 19 17 22 19 10 10 8 13 14 15 16 19 21
30 27 24 21 21 20 18 15 16 16 14 11 12 13 14 14 13 14 14 13 15 24 26 15 12 13 9 10 9 4 7 14 14 7 14 20 26 8 4 6 10 13 16 17
32 29 26 23 22 21 20 19 17 18 15 8 9 11 12 12 13 13 14 14 17 19 11 8 7 5 14 5 7 7 7 7 11 11 6 5 3 8 16 8 12 10 14 16
32 30 28 25 23 22 22 20 17 19 21 14 16 13 10 10 12 13 12 14 15 12 10 9 10 14 13 12 9 8 8 11 14 16 16 16 17 16 15 12 11 18 23 24
33 31 29 26 24 23 22 20 19 19 20 17 18 18 17 14 15 15 12 14 11 11 7 5 7 8 8 10 11 13 14 11 16 17 15 11 8 11 15 25 31 25 27 27
33 31 30 28 25 24 23 22 20 20 19 17 20 21 17 18 19 22 18 20 6 7 4 6 7 9 12 14 23 16 21 18 20 14 21 28 35 30 31 25 26 29 30 31
33 32 30 28 26 23 22 21 23 21 20 18 20 8 7 14 20 22 24 20 19 18 14 17 18 15 13 17 17 20 19 18 22 25 28 29 27 28 27 26 27 28 27 30
34 32 31 28 26 24 23 22 22 20 19 20 19 18 8 9 9 24 18 18 20 21 21 24 26 20 14 20 25 28 25 22 22 25 25 23 22 21 22 26 26 28 30 31
33 32 30 28 26 24 23 23 22 20 16 16 16 20 21 20 18 21 25 20 14 21 26 28 28 20 20 27 29 32 17 19 24 28 24 26 30 25 23 27 29 31 36 39
33 31 30 27 25 24 24 23 21 20 18 17 17 17 13 12 19 22 22 19 15 18 19 25 27 22 20 18 23 21 18 17 20 24 25 29 26 22 27 32 33 33 34 35
33 31 29 27 26 25 24 20 17 14 12 11 9 10 9 7 11 11 11 10 16 16 18 24 24 17 15 28 35 13 17 17 13 19 23 19 17 25 25 25 30 33 35 35
33 31 29 27 25 23 23 21 17 14 12 12 7 9 7 10 7 10 10 11 13 18 20 24 24 20 19 26 13 4 7 16 9 12 17 24 26 24 27 30 30 29 30 30
33 31 30 28 28 25 23 19 18 17 17 8 12 11 4 9 11 10 7 8 11 14 23 22 13 17 18 17 6 7 12 19 10 19 21 24 25 25 26 25 25 27 27 28
33 31 30 28 26 22 20 17 16 16 19 23 29 21 13 10 9 7 6 8 8 9 18 10 20 26 17 15 16 18 16 6 18 20 23 26 26 25 24 24 27 30 30 29
36 33 26 22 20 19 16 10 11 11 10 19 24 23 26 19 14 12 7 5 4 6 8 12 8 11 11 11 11 4 4 14 15 19 25 27 27 26 26 26 28 31 32 25
34 32 28 23 20 11 11 11 8 10 10 10 7 4 17 18 18 15 11 9 6 7 9 9 7 10 9 8 7 13 14 12 15 19 25 29 28 26 27 27 29 31 25 13
32 26 25 15 13 11 11 14 11 10 9 13 12 10 18 19 18 10 8 7 9 7 8 7 9 9 14 19 15 14 11 14 15 19 25 28 27 27 26 25 27 31 11 8
29 21 19 16 10 12 18 17 11 12 11 13 14 14 13 13 12 9 6 9 7 6 7 10 9 8 10 6 4 9 11 14 18 20 26 29 29 28 26 25 26 26 8 8
20 18 12 18 16 9 12 17 18 16 16 18 16 13 13 11 9 8 8 6 6 6 8 9 9 8 8 13 16 18 13 17 20 22 28 34 34 27 26 24 24 23 18 12
13 17 12 11 16 22 21 24 24 20 18 17 14 8 6 11 8 8 10 6 8 11 11 10 14 17 18 17 18 19 18 20 23 23 35 37 35 24 23 22 21 21 20 11
15 13 21 16 14 15 15 19 13 18 16 18 9 8 9 3 7 11 13 18 19 17 12 16 22 23 22 21 20 22 23 26 26 37 42 37 25 19 21 20 18 19 19 15

GFSNW_700_spd_243.txt.gz
Wind_Speed
20 17 16 14 12 10 9 9 6 7 5 7 4 4 3 5 4 5 7 8 8 10 14 17 9 15 22 22 26 29 25 16 23 25 27 28 25 24 17 6 6 9 7 5
22 19 17 16 14 12 11 11 10 9 8 7 5 5 8 8 6 4 5 6 6 8 14 10 16 15 14 19 24 24 22 15 12 17 13 12 20 17 14 8 12 4 6 3
24 21 19 17 16 14 14 12 8 7 8 9 7 4 8 9 4 3 3 6 8 9 12 13 13 16 16 20 14 19 21 11 11 9 14 16 20 15 10 11 4 9 15 22
27 24 21 19 18 17 16 13 10 10 5 6 7 6 9 7 4 7 8 6 6 7 16 15 13 21 23 21 15 13 15 17 14 18 21 15 21 21 17 12 11 13 22 23
30 26 24 21 20 19 18 15 14 12 10 8 7 10 13 14 8 6 13 10 8 12 12 11 19 22 22 26 19 10 11 13 24 27 19 16 21 16 13 13 15 16 15 20
33 30 26 24 22 21 19 17 17 16 13 14 14 10 7 7 5 11 15 12 10 13 12 18 22 22 23 20 20 16 15 15 19 16 23 30 12 9 9 15 12 10 13 18
35 32 29 26 23 21 21 18 19 18 16 16 15 11 8 12 13 14 12 13 17 17 20 22 25 24 12 4 9 5 12 11 11 17 19 4 4 12 17 10 9 4 6 7
36 35 31 29 26 25 21 20 20 21 17 14 15 12 12 15 16 17 14 11 15 19 22 25 12 7 4 8 7 4 3 2 5 3 5 19 19 4 16 13 9 8 9 13
37 36 33 31 28 26 24 22 22 22 18 13 15 17 16 14 16 12 12 15 22 23 20 9 3 3 6 3 6 5 1 6 8 7 3 4 4 18 27 17 10 5 18 20
38 37 35 33 30 27 24 23 22 22 19 16 16 14 19 19 18 15 14 14 17 17 11 7 6 5 6 4 5 3 6 9 14 16 9 11 17 16 17 6 9 21 24 25
39 37 36 34 31 28 27 23 22 22 20 17 15 15 17 17 20 20 13 15 15 12 9 6 6 7 6 8 9 8 10 9 11 9 7 8 12 15 20 25 24 24 26 27
39 37 36 35 32 30 28 25 23 23 21 15 11 9 9 14 17 22 22 20 10 8 6 9 7 8 9 10 12 18 10 8 10 11 15 20 21 30 29 27 29 27 26 30
38 37 36 34 33 31 28 24 25 25 22 17 18 15 18 13 16 24 26 27 22 20 14 15 14 17 16 15 14 18 21 22 24 26 30 29 23 19 20 20 22 23 24 24
37 36 35 34 33 31 28 26 26 24 22 21 19 18 18 14 18 12 16 23 27 26 24 27 26 27 17 22 20 27 26 26 23 21 15 21 18 21 22 24 20 22 26 29
36 35 34 34 32 30 28 27 27 25 21 13 6 8 12 15 18 19 16 22 25 22 24 24 27 29 26 30 28 27 17 15 12 20 20 25 28 29 30 27 25 29 32 35
35 34 34 33 32 30 29 28 26 23 21 20 19 13 12 12 10 13 16 20 21 18 20 23 28 31 27 18 25 26 6 10 15 21 23 27 24 10 19 25 33 34 33 33
33 32 32 32 31 30 29 22 23 22 21 18 11 14 14 10 11 18 19 18 17 16 16 22 21 21 16 27 35 14 19 17 6 8 15 15 18 26 27 27 27 28 28 29
32 31 30 29 29 29 28 25 17 14 15 14 8 7 10 9 8 10 11 12 12 17 21 23 22 20 21 29 16 5 6 4 5 4 6 16 20 24 26 25 26 26 25 26
29 28 26 24 27 28 26 24 20 16 17 9 11 15 6 7 11 10 11 13 15 13 22 20 17 22 20 18 9 9 4 5 4 7 15 18 22 25 25 24 26 26 26 28
32 33 32 29 29 26 23 19 19 18 21 23 24 18 15 11 8 7 6 6 6 6 11 8 15 24 12 7 6 15 9 18 7 11 15 17 22 24 24 25 26 27 29 33
40 44 39 31 29 24 21 13 12 12 10 17 22 25 24 16 14 11 8 5 4 5 6 8 6 16 9 9 7 6 9 8 5 13 16 21 25 25 25 25 26 28 30 29
44 41 29 26 27 13 12 10 10 9 11 12 9 6 15 28 22 18 8 9 5 7 6 6 6 14 8 14 14 19 16 8 9 13 16 19 24 29 29 27 26 27 29 21
37 32 26 18 17 13 14 17 12 14 11 11 11 10 13 33 24 16 8 9 9 4 7 6 9 9 11 15 12 5 11 8 10 12 15 18 24 31 31 27 25 25 25 24
32 26 23 16 11 14 16 17 16 11 7 8 13 9 19 18 19 9 7 9 6 6 6 6 9 13 14 15 16 10 6 7 13 13 14 19 23 36 34 26 24 24 24 23
26 19 14 17 13 9 17 18 19 15 18 17 17 15 14 18 8 9 8 7 7 7 5 8 10 13 13 13 9 13 15 16 17 19 21 24 30 39 35 23 20 22 21 21
17 14 13 18 20 18 14 16 21 19 17 20 25 15 13 12 8 10 10 6 7 8 6 7 9 11 16 16 16 18 21 23 23 23 27 27 33 36 30 20 18 19 20 19
12 17 19 19 17 17 18 18 22 21 24 12 7 8 7 5 4 8 10 11 11 12 10 10 13 16 15 18 20 19 20 23 25 27 29 33 34 26 22 19 19 19 18 18

GFSNW_700_spd_246.txt.gz
Wind_Speed
28 24 22 20 18 17 16 13 12 12 11 9 7 6 6 4 8 8 2 3 7 8 11 12 5 13 13 18 20 21 22 13 9 13 10 23 23 23 25 10 9 7 6 6
31 27 24 22 21 19 17 16 14 11 10 9 10 8 7 7 7 9 8 9 9 8 9 10 9 11 13 14 18 18 20 13 8 7 5 7 23 17 15 10 12 7 3 8
34 31 27 25 23 21 20 18 13 16 14 14 11 9 9 6 5 4 9 5 6 6 8 9 10 17 13 21 19 13 12 4 7 4 11 16 18 13 14 11 6 11 12 20
37 34 31 28 25 24 23 20 17 15 10 15 12 12 8 7 6 5 4 2 6 7 9 18 12 18 22 21 11 9 6 3 4 10 12 9 15 17 15 12 10 8 18 23
40 37 35 32 28 27 25 23 21 18 15 15 13 15 13 10 8 9 9 11 7 11 14 17 21 21 22 19 17 17 6 4 12 16 6 12 16 11 9 11 14 11 6 15
41 39 37 34 31 29 27 24 23 21 17 18 16 15 9 7 8 12 12 12 16 17 14 17 20 22 25 23 13 10 7 5 10 4 15 8 7 18 11 8 8 3 12 11
43 42 39 37 34 30 27 24 25 23 22 19 16 13 12 11 9 9 12 14 14 17 17 17 19 19 10 3 1 3 4 4 5 8 12 3 1 5 9 10 10 10 6 5
44 43 41 39 35 32 30 28 27 25 22 18 19 18 16 14 13 18 19 16 14 16 15 20 12 2 2 3 3 2 4 2 3 3 5 13 7 1 9 16 9 7 9 9
44 44 42 40 37 35 32 29 28 26 22 18 16 19 21 21 20 21 18 16 15 15 16 16 4 2 3 2 1 3 6 6 9 6 1 3 2 13 12 11 12 5 12 18
45 44 43 41 39 37 34 31 29 27 23 20 16 21 21 21 22 19 15 18 18 16 14 10 6 3 3 3 4 1 6 9 12 13 8 8 12 12 14 5 11 20 28 29
45 44 43 42 40 38 35 31 29 27 24 19 19 20 20 23 22 20 16 17 19 18 11 7 5 5 6 7 9 7 5 5 7 8 6 7 8 10 17 25 29 29 30 29
45 44 43 42 40 38 36 33 30 28 26 19 23 21 20 19 19 20 22 23 16 9 8 9 7 9 7 10 7 12 13 13 10 9 11 12 14 25 25 18 19 20 22 22
45 43 43 41 40 38 35 32 31 29 27 22 22 13 17 22 22 22 24 24 25 23 20 16 14 13 14 14 15 18 15 19 23 23 25 24 23 17 16 18 22 25 23 22
43 42 42 40 39 36 35 33 31 29 26 23 15 16 17 20 18 18 20 22 26 27 26 23 21 23 17 22 22 25 26 26 24 26 19 13 13 14 19 25 25 27 26 28
42 41 40 39 38 35 34 32 32 30 27 13 20 21 19 17 17 14 19 18 21 30 33 31 29 28 27 31 33 31 20 15 17 17 11 16 14 20 20 22 24 25 28 29
40 40 39 38 37 37 34 32 33 30 28 24 20 13 15 18 18 17 20 21 20 21 29 32 29 27 23 16 24 22 8 6 8 14 15 15 17 12 20 22 25 28 29 31
38 38 38 37 37 35 34 27 31 28 24 22 14 15 19 18 17 18 18 19 19 18 21 28 27 20 14 26 30 12 10 13 15 14 16 11 12 17 21 25 26 27 27 30
35 35 35 34 34 31 30 27 20 23 26 23 10 10 12 12 11 12 13 16 16 18 20 19 19 20 19 24 13 7 12 10 11 7 7 9 15 18 22 24 24 23 25 25
34 32 30 28 32 34 30 26 23 18 23 14 15 17 11 15 16 13 11 12 13 15 20 20 18 22 18 10 8 4 12 12 3 7 4 10 15 18 20 21 23 24 24 25
38 39 37 33 32 30 29 20 19 20 24 22 18 19 15 12 12 12 9 7 12 8 8 9 19 27 7 4 7 16 17 13 8 6 6 10 15 19 23 26 26 27 27 27
47 45 38 30 30 29 24 13 18 16 13 19 26 25 21 16 14 13 10 5 6 5 5 7 6 7 3 5 5 6 17 13 13 10 8 12 16 18 21 26 27 27 27 26
52 46 36 35 29 14 13 13 13 10 16 12 16 21 28 26 22 15 12 8 6 6 5 6 5 6 7 7 5 10 15 16 9 7 11 13 15 16 21 30 34 28 26 24
46 38 37 26 20 17 15 18 14 16 14 17 17 15 19 30 25 15 10 10 9 5 7 5 9 9 10 13 13 10 10 19 13 11 14 17 18 23 31 34 35 31 25 23
47 34 24 14 13 16 14 21 23 18 14 14 14 15 16 25 25 11 7 9 7 7 8 9 12 12 13 13 5 5 11 10 9 12 18 19 23 28 30 31 33 29 25 22
33 18 14 17 10 12 16 17 19 20 16 16 17 15 12 23 12 11 9 8 7 8 9 12 16 17 17 18 17 17 12 11 14 18 21 24 26 28 29 33 33 27 23 22
26 12 12 19 18 18 25 27 22 19 18 16 20 18 10 15 9 11 12 7 8 12 13 15 14 17 17 9 10 11 13 17 18 19 22 25 27 29 31 32 31 26 22 21
17 17 14 22 21 18 22 24 23 20 18 21 21 12 12 10 12 12 12 13 12 13 15 11 10 12 12 12 14 14 18 19 23 27 30 31 31 32 31 31 27 26 21 19